Dewpoint
74 74 73 72 72 72 74 73 73 73 72 72 72 71 68 66 64 65 63 64 67 68 70 67 69 74 74 74 75 74 74 74 73 73 75 74 74 73 72 73 73 73 73 73 73 74 74 74 73 72 72 71 70 69 68 67 66 66 64 63 63 63 63 63 63 62 63 63 63 63 64 66 67 67
75 75 75 73 73 73 73 73 71 72 71 70 71 73 71 70 67 66 63 65 68 69 71 68 70 72 71 73 73 74 74 75 74 73 74 75 74 73 71 72 72 72 72 72 72 73 73 73 73 72 72 70 69 68 67 66 66 66 64 63 63 63 62 63 62 62 63 63 63 63 64 66 66 66
76 74 73 74 75 74 74 75 72 74 73 72 72 74 72 71 69 69 66 65 67 71 69 71 72 72 71 72 72 72 73 75 74 72 73 74 74 73 73 72 72 71 71 71 71 71 71 71 71 71 70 69 69 67 67 66 66 65 63 62 62 62 62 62 62 62 62 63 63 63 65 65 66 66
75 74 73 73 74 74 75 73 74 74 74 75 72 72 72 71 71 71 68 66 66 70 71 71 73 73 73 73 72 72 73 74 75 75 73 73 74 75 74 72 72 71 71 70 70 69 69 68 69 69 69 69 69 69 67 66 65 64 63 62 61 61 61 62 62 62 62 62 63 63 64 65 65 66
75 74 73 73 73 75 73 73 74 74 73 72 71 70 72 72 72 70 69 67 68 69 71 73 73 73 73 71 73 72 72 72 72 74 73 74 73 74 74 73 71 71 70 70 69 68 68 67 67 68 68 69 69 68 67 65 64 63 62 61 60 60 60 61 62 62 62 62 63 63 64 64 65 65
74 73 73 73 74 74 73 72 71 71 71 70 70 70 70 70 71 72 70 69 68 68 70 71 73 72 74 70 71 71 72 72 74 72 72 72 73 73 74 74 73 71 70 70 69 68 67 66 66 67 68 68 68 68 67 66 65 63 61 60 60 60 60 59 61 61 62 62 62 63 63 63 64 64
73 73 72 73 74 74 73 72 72 72 71 70 69 69 70 69 69 71 71 70 69 69 70 71 71 71 72 70 71 72 73 74 73 72 72 71 72 74 75 75 74 71 70 69 69 68 67 66 65 65 66 67 67 67 66 65 63 63 61 60 60 60 59 59 59 60 61 61 61 62 63 63 63 64
74 73 73 72 72 73 72 71 71 71 71 70 69 69 70 70 70 70 72 71 69 69 68 68 71 71 70 71 73 74 74 73 72 72 72 73 74 74 75 75 74 73 70 69 68 68 67 66 65 64 65 65 65 65 64 63 62 60 61 60 59 59 58 58 57 58 59 59 59 60 61 62 62 63
73 73 72 72 72 72 71 71 71 71 71 70 70 69 68 70 70 71 72 72 71 69 68 68 69 71 72 72 73 72 72 72 73 73 73 73 72 73 73 73 74 72 70 69 69 68 67 66 65 64 64 64 63 63 63 62 60 60 60 58 58 59 59 58 57 57 57 57 58 59 60 61 61 62
73 72 72 71 71 71 71 70 70 70 71 70 69 69 69 69 70 71 71 71 71 70 69 68 69 69 70 70 71 72 72 73 72 71 70 70 71 72 72 73 73 73 72 71 71 69 67 66 65 65 64 63 63 63 62 61 60 59 58 56 57 59 58 56 56 56 56 57 57 57 58 59 60 61
72 72 72 72 72 71 71 71 70 70 70 70 69 69 70 70 69 70 70 69 69 70 70 70 70 71 71 71 71 72 72 72 72 70 68 67 68 69 71 71 73 72 71 71 70 70 69 68 66 63 62 62 63 62 61 60 59 58 57 56 56 56 56 57 56 55 55 56 57 57 57 57 58 60
71 72 72 72 72 72 71 71 71 71 70 70 70 70 70 70 70 69 68 68 68 69 69 69 69 69 69 69 70 70 69 68 68 69 68 67 68 69 70 72 72 73 71 71 70 69 68 67 67 64 63 63 63 62 61 61 61 60 58 57 58 58 56 56 56 55 55 55 55 56 57 56 57 57
70 70 70 70 70 71 75 74 73 72 72 69 69 69 70 69 68 67 67 68 68 68 68 68 68 68 69 69 69 69 68 68 68 68 68 68 69 70 70 71 73 74 73 72 71 70 69 68 67 66 65 64 64 63 63 62 63 61 59 57 58 59 58 56 56 56 55 55 55 55 56 56 56 56
70 69 69 69 74 76 77 76 74 73 73 74 71 68 68 69 69 69 68 68 69 68 68 68 69 69 69 70 69 69 69 69 68 69 68 67 68 68 70 70 71 73 73 72 71 71 70 68 67 65 65 64 66 64 62 60 60 61 59 58 58 58 59 57 56 55 55 55 55 55 54 54 55 55
69 69 69 69 72 76 78 75 74 73 72 71 72 73 73 72 69 68 69 69 69 69 69 70 69 69 69 69 70 70 70 69 69 68 68 67 67 68 67 66 67 70 73 71 69 69 70 68 67 68 67 66 64 63 63 62 61 60 60 59 58 58 59 58 57 56 55 55 56 56 55 55 55 55
69 69 68 68 68 69 69 70 70 72 72 70 69 69 70 71 72 71 69 68 68 69 69 69 69 69 69 69 69 69 69 69 69 69 69 68 67 66 66 65 66 68 74 70 68 68 69 69 68 68 69 68 67 65 64 62 60 59 59 59 58 58 58 58 59 58 56 56 57 58 58 56 56 55
69 68 69 68 68 66 72 73 69 67 66 67 68 68 69 70 69 67 67 69 70 69 69 69 68 68 68 68 68 69 69 68 68 68 68 68 67 68 68 68 67 69 71 69 68 68 69 71 71 71 71 72 71 69 65 63 61 60 59 59 58 58 58 58 58 58 58 57 56 55 55 56 56 55
69 69 68 68 68 68 68 68 68 68 68 69 69 69 69 69 70 69 67 67 67 69 69 68 67 67 69 67 67 68 68 66 66 65 65 65 66 67 67 68 69 70 72 70 68 68 70 71 70 70 70 70 71 71 67 63 61 60 59 58 58 57 58 58 58 58 57 57 56 55 53 53 53 53
69 69 69 68 68 68 68 68 68 66 66 65 66 66 66 67 67 67 67 67 67 68 67 67 67 66 66 66 66 66 65 65 66 66 65 65 66 67 70 71 71 71 72 72 70 69 71 70 68 69 69 70 69 65 62 62 61 60 59 58 58 57 57 58 58 57 57 56 56 55 53 52 52 52
70 70 69 69 68 68 68 70 68 70 68 66 65 65 65 66 67 67 69 65 65 68 67 67 66 66 65 64 65 65 64 64 65 67 69 70 71 70 69 68 67 68 70 73 71 69 70 71 70 70 70 66 67 65 61 61 61 60 59 58 57 56 56 57 57 57 57 56 55 55 53 52 51 51
70 70 69 69 68 68 67 68 64 64 69 68 67 66 65 65 65 66 68 66 63 62 61 62 63 62 62 61 60 60 61 65 66 65 64 63 63 65 65 66 67 67 67 70 72 70 69 70 70 70 69 65 66 65 63 59 60 60 59 58 57 56 55 55 56 56 56 56 55 55 54 52 51 52
69 70 72 73 69 68 68 65 63 63 67 67 67 67 67 67 67 67 68 68 68 64 61 61 61 61 62 62 62 62 62 62 65 65 65 66 65 63 64 63 64 65 66 67 72 67 68 67 67 66 66 65 64 63 62 59 58 59 58 56 56 55 55 54 55 56 56 56 55 54 53 52 52 53
67 68 71 73 71 69 67 62 62 61 66 68 68 67 67 66 65 65 65 66 66 66 66 66 67 67 67 68 67 68 65 65 70 67 66 66 65 65 64 64 64 64 65 66 69 66 66 65 65 65 63 63 65 64 61 60 58 58 59 58 56 55 54 54 53 53 54 55 55 55 53 52 52 55
66 67 67 69 63 61 61 60 59 58 58 65 66 65 65 64 63 64 64 66 65 66 66 66 66 66 67 68 69 69 69 70 71 69 67 66 66 66 65 65 65 64 65 67 68 67 66 66 65 65 64 62 62 63 60 59 58 58 57 57 56 56 56 56 55 53 53 53 53 54 53 52 52 54
68 67 68 68 66 60 59 58 57 56 56 60 65 66 66 66 66 67 66 67 72 68 68 68 68 68 68 68 68 69 69 69 69 69 68 68 67 66 66 65 65 65 66 67 68 67 66 66 66 64 64 64 64 63 61 59 59 58 59 56 55 55 54 54 55 53 53 52 52 51 52 52 52 53
69 69 68 68 66 61 59 57 56 55 56 57 65 66 61 61 62 66 68 68 68 68 68 68 69 70 70 70 71 71 71 71 71 70 70 68 68 67 67 67 66 66 66 68 65 68 68 67 67 67 65 64 65 65 63 62 61 59 58 56 55 55 54 53 54 53 52 52 53 51 52 52 53 52
69 70 70 70 70 61 57 55 54 54 54 56 60 57 57 57 59 63 65 66 67 67 68 68 68 68 68 69 69 69 69 70 70 71 71 71 70 69 68 68 68 68 68 69 72 70 69 68 68 67 67 66 65 64 64 64 64 59 57 57 56 55 54 53 52 52 52 52 53 53 51 51 52 53
69 69 69 66 54 52 49 49 51 52 52 58 55 54 56 57 59 63 64 65 66 67 67 67 67 68 68 69 69 69 70 70 70 70 70 71 72 72 71 70 70 69 69 69 69 70 70 69 69 69 68 67 66 65 65 65 65 61 61 60 58 56 55 54 52 55 55 53 53 54 54 53 54 53
66 63 56 54 55 55 55 54 55 56 57 54 52 52 53 58 62 64 64 65 66 66 66 67 67 67 68 68 69 70 70 70 70 70 70 70 70 71 71 72 72 72 71 71 71 71 71 70 69 69 69 68 67 67 67 66 67 65 63 61 60 59 58 57 55 53 53 53 53 54 54 53 54 56
58 55 54 53 53 55 58 63 65 66 66 61 58 56 58 61 62 63 64 65 65 65 66 66 67 67 68 68 69 70 70 70 69 69 69 69 69 69 69 69 69 70 71 72 72 72 72 71 71 70 70 69 69 69 69 69 68 69 66 65 65 63 61 59 58 56 55 53 54 55 55 55 55 56
62 62 62 62 59 59 59 60 60 60 63 64 65 66 66 65 64 64 64 65 66 66 66 66 67 67 68 69 69 69 69 69 69 70 69 69 69 69 69 68 68 68 69 70 72 73 72 72 72 71 70 70 69 69 69 69 68 68 68 67 66 66 64 62 61 59 57 55 56 57 58 58 58 61
67 67 66 65 67 68 68 68 68 68 67 66 66 66 67 67 66 66 66 66 66 66 66 67 67 67 68 68 68 68 69 69 69 69 69 69 69 69 69 68 68 68 68 68 69 72 75 73 72 72 71 70 70 70 70 70 69 69 69 69 67 67 66 64 63 62 61 59 58 58 59 60 58 58
63 64 65 66 66 67 67 67 68 69 69 69 68 68 68 67 67 66 65 65 65 66 66 66 66 67 67 67 68 68 68 68 68 69 69 69 69 69 69 68 68 68 67 68 68 69 71 73 73 72 71 71 71 70 70 69 70 71 70 70 68 68 68 66 65 64 62 61 60 60 60 61 61 60
60 62 64 64 65 65 66 66 67 68 68 69 69 69 66 68 68 67 66 66 66 66 66 66 66 66 66 67 67 67 67 68 68 68 67 69 69 68 68 68 68 69 68 68 69 69 69 71 72 72 72 71 71 71 71 70 69 70 70 71 70 69 69 68 65 64 62 62 62 61 61 61 61 61
62 63 63 64 64 65 65 66 66 67 68 68 68 69 69 69 68 67 67 67 66 66 66 66 66 66 66 66 67 67 67 67 68 68 68 69 68 68 68 68 68 68 69 69 69 70 69 69 70 70 70 70 71 72 71 71 70 70 70 70 71 70 70 68 66 63 62 62 61 62 62 61 60 61
60 61 62 62 63 64 64 64 65 66 66 67 67 68 68 68 69 69 68 68 68 67 67 68 67 67 67 67 66 67 66 66 67 67 68 68 68 68 68 68 68 68 69 69 69 70 70 70 70 69 69 69 69 69 70 70 70 71 70 70 71 71 71 70 66 64 62 61 61 61 61 62 62 61
59 60 61 62 62 63 63 63 64 64 65 65 65 66 66 67 67 68 69 69 69 68 69 69 68 67 67 66 66 65 66 66 67 67 67 68 68 68 68 68 68 68 68 69 69 70 70 70 70 70 67 67 67 68 69 70 68 67 72 71 71 71 71 70 66 64 62 62 62 61 61 62 63 62
59 60 60 61 61 62 63 63 64 64 65 65 65 66 66 67 67 68 69 70 70 69 69 69 68 67 68 67 67 67 67 68 67 67 67 68 68 68 68 68 69 69 69 69 69 70 71 71 71 68 67 66 66 66 67 69 69 70 66 71 72 72 71 70 67 66 65 62 62 62 61 61 62 63
57 58 59 60 61 62 62 63 63 64 64 65 65 65 66 66 67 67 68 69 70 70 69 69 68 68 68 68 68 68 68 68 68 68 68 68 68 68 68 68 68 69 69 69 69 70 70 71 70 67 68 68 67 68 69 69 69 69 66 61 70 72 71 70 70 69 67 64 62 62 62 62 59 59
59 59 60 60 61 62 62 63 63 64 64 65 65 66 66 66 67 67 68 68 69 70 69 68 68 67 69 68 68 69 69 69 69 69 69 68 68 68 69 69 69 69 69 68 68 69 70 70 70 68 68 69 70 71 70 69 70 70 70 67 58 68 73 71 70 70 69 68 66 62 61 60 60 60
61 61 62 63 63 64 64 64 65 65 65 66 66 65 67 67 68 68 68 69 69 70 70 70 70 69 69 69 69 69 69 69 69 69 69 69 68 67 67 66 68 69 68 68 69 69 69 70 71 65 68 70 70 70 69 69 68 69 69 70 62 58 61 66 72 71 70 69 66 64 63 62 61 60
60 61 62 63 64 65 66 66 67 67 67 67 68 68 68 69 69 65 68 67 69 69 70 70 71 70 70 70 70 69 69 69 69 69 68 69 69 68 67 67 68 68 68 68 68 69 69 70 70 68 69 69 69 67 67 67 68 68 69 70 69 63 59 59 61 65 71 70 66 64 63 61 59 59
61 62 63 65 64 63 62 62 63 63 63 64 64 65 65 66 66 67 68 68 69 69 70 70 70 70 70 71 71 70 70 69 69 69 69 68 68 69 68 68 68 69 69 69 69 69 69 69 69 69 68 68 68 68 68 68 68 69 69 69 69 69 69 62 59 59 60 61 61 65 66 64 60 59
62 62 61 60 59 59 59 60 60 60 61 61 62 62 62 63 63 65 66 66 67 67 68 69 69 70 70 70 71 71 70 70 70 70 69 68 69 69 69 69 67 68 68 67 67 68 69 69 69 69 69 68 68 68 68 68 68 68 68 68 68 68 69 68 67 62 60 59 59 57 56 56 58 61
59 58 57 56 56 57 57 57 57 57 57 58 58 58 59 60 61 62 63 64 65 67 67 68 68 68 69 69 69 69 70 67 68 69 69 68 68 68 67 68 67 67 67 67 67 67 67 68 69 70 70 69 69 69 68 67 67 67 68 68 68 68 68 66 66 66 66 66 58 54 56 58 58 58